Powrót do katalogu

STARLINK-32784

AktywnyŁącznośćVLEO
NORAD 62607·PAYLOAD·🇺🇸 United States

Wystrzelony Jan 13, 2025 z Cape Canaveral Space Force Station

Loading…

Następne Przeloty (najbliższe 24 godziny)

TLE

ŚwieżeSource: CelesTrak SupGP

Epoka: Sep 14, 2026, 21:53 UTC

1 62607C 25008W   26257.91229167  .00110880  00000+0  82989-3 0  2578
2 62607  42.9826 250.3680 0026996 116.2847  42.9714 15.71136196    17

Śledź STARLINK-32784 w czasie rzeczywistym z AllMySat

Download on the App Store